This is the latest recevied weather packets stored in our database for station/object KM6YFK-13. If no packets are shown the sender has not sent any weather packets the latest 10 day(s).
| Time | Temp. | Humidity | Pressure | Rain* | Wind** | Luminosity | Snow |
|---|---|---|---|---|---|---|---|
| 1777133908 | 28.89° C | 48% | 1012.1 hPa | 0 mm | - | 435 W/m² | - |
| 1777133607 | 28.89° C | 46% | 1012.2 hPa | 0 mm | - | 996 W/m² | - |
| 1777133308 | 28.33° C | 45% | 1012.1 hPa | 0 mm | - | 1036 W/m² | - |
| 1777133008 | 28.33° C | 49% | 1012.1 hPa | 0 mm | - | 991 W/m² | - |
| 1777132708 | 28.33° C | 51% | 1012.1 hPa | 0 mm | - | 810 W/m² | - |
| 1777132408 | 27.78° C | 50% | 1012.1 hPa | 0 mm | - | 923 W/m² | - |
| 1777132108 | 27.22° C | 56% | 1012.2 hPa | 0 mm | - | 898 W/m² | - |
| 1777131808 | 27.22° C | 55% | 1012.1 hPa | 0 mm | - | 189 W/m² | - |
| 1777131508 | 27.78° C | 54% | 1012.3 hPa | 0 mm | - | 140 W/m² | - |
| 1777131207 | 27.78° C | 55% | 1012.3 hPa | 0 mm | - | 847 W/m² | - |
| 1777130907 | 27.22° C | 54% | 1012.3 hPa | 0 mm | - | 822 W/m² | - |
| 1777130608 | 27.22° C | 54% | 1012.3 hPa | 0 mm | - | 809 W/m² | - |
| 1777130308 | 26.67° C | 59% | 1012.4 hPa | 0 mm | - | 795 W/m² | - |
| 1777130007 | 26.67° C | 60% | 1012.4 hPa | 0 mm | - | 782 W/m² | - |
| 1777129712 | 26.67° C | 60% | 1012.4 hPa | 0 mm | - | 766 W/m² | - |
| 1777129410 | 26.67° C | 60% | 1012.4 hPa | 0 mm | - | 756 W/m² | - |
| 1777129109 | 26.67° C | 60% | 1012.4 hPa | 0 mm | - | 742 W/m² | - |
| 1777128809 | 26.11° C | 60% | 1012.5 hPa | 0 mm | - | 723 W/m² | - |
| 1777128507 | 26.11° C | 61% | 1012.4 hPa | 0 mm | - | 714 W/m² | - |
| 1777128208 | 26.11° C | 64% | 1012.4 hPa | 0 mm | - | 698 W/m² | - |
| 1777127908 | 25.56° C | 64% | 1012.4 hPa | 0 mm | - | 683 W/m² | - |
| 1777127607 | 25.56° C | 64% | 1012.4 hPa | 0 mm | - | 667 W/m² | - |
| 1777127307 | 25.56° C | 65% | 1012.4 hPa | 0 mm | - | 651 W/m² | - |
| 1777127008 | 25.56° C | 68% | 1012.4 hPa | 0 mm | - | 634 W/m² | - |
| 1777126708 | 25.56° C | 68% | 1012.3 hPa | 0 mm | - | 619 W/m² | - |
* Rain latest hour (hover to see other rain measurements)
** Current wind speed in m/s (hover to see current wind gust speed)